This demonstration page uses our WeatherBlox Daily Observations layout. Learn more.

Left ArrowRight Arrow

Hourly Observations for August 28, 2017

Temp ( °F °C ) Dew Point ( °F °C ) Humidity (%) Winds ( mph kmh ) Pressure ( in mb ) Visibility ( mi km ) Precip ( " mm )
12:15 am 00:15 Partly Cloudy 63 17.1 56 13.6 80 80 Calm 30.06 1018 10 16 0.00 0.00
12:35 am 00:35 Partly Cloudy 63 17.2 57 13.8 81 81 Calm 30.06 1018 10 16 0.00 0.00
12:55 am 00:55 Partly Cloudy 62 16.7 57 14 84 84 Calm 30.06 1018 10 16 0.00 0.00
1:15 am 01:15 Clear 62 16.8 57 13.7 82 82 E 3 6 30.03 1017 10 16 0.00 0.00
1:35 am 01:35 Clear 63 17 56 13.5 80 80 ESE 3 6 30.03 1017 10 16 0.00 0.00
1:55 am 01:55 Partly Cloudy 63 17.1 55 13 77 77 Calm 30.03 1017 10 16 0.00 0.00
2:15 am 02:15 Mostly Cloudy 63 17.3 55 12.8 75 75 Calm 30.03 1017 10 16 0.00 0.00
2:35 am 02:35 Cloudy 63 17.1 56 13.4 79 79 Calm 30.03 1017 10 16 0.00 0.00
2:55 am 02:55 Cloudy 62 16.8 57 14 84 84 Calm 30.06 1018 10 16 0.00 0.00
3:15 am 03:15 Cloudy with Light Rain 62 16.7 58 14.4 86 86 Calm 30.06 1018 10 16 0.00 0.00
3:35 am 03:35 Cloudy 61 16.2 58 14.7 91 91 Calm 30.06 1018 10 16 0.00 0.00
3:55 am 03:55 Mostly Cloudy 61 16.2 59 15.1 93 93 Calm 30.06 1018 10 16 0.00 0.00
4:15 am 04:15 Mostly Cloudy with Light Rain 61 15.9 58 14.6 92 92 W 3 6 30.06 1018 10 16 0.00 0.00
4:35 am 04:35 Cloudy with Rain 61 15.9 59 15.1 95 95 Calm 30.06 1018 7 11 0.03 0.76
4:55 am 04:55 Cloudy with Light Rain 61 15.9 60 15.4 97 97 Calm 30.06 1018 7 11 0.05 1.27
5:15 am 05:15 Cloudy with Rain 61 15.9 60 15.5 97 97 Calm 30.06 1018 5 8 0.01 0.25
5:35 am 05:35 Cloudy with Light Rain 60 15.8 59 15.1 96 96 Calm 30.06 1018 10 16 0.03 0.76
5:55 am 05:55 Cloudy with Light Rain 60 15.7 60 15.3 97 97 E 3 6 30.06 1018 5 8 0.05 1.27
6:15 am 06:15 Cloudy with Light Rain 60 15.6 59 15 96 96 E 5 7 30.06 1018 7 11 0.01 0.25
6:35 am 06:35 Cloudy with Light Rain 60 15.5 58 14.7 95 95 Calm 30.06 1018 10 16 0.03 0.76
6:55 am 06:55 Cloudy with Light Rain 60 15.5 59 15 97 97 Calm 30.06 1018 7 11 0.04 1.02
7:15 am 07:15 Cloudy with Light Rain 60 15.5 59 14.9 96 96 Calm 30.06 1018 7 11 0.01 0.25
7:35 am 07:35 Cloudy with Rain 60 15.5 59 15 97 97 ESE 6 9 30.06 1018 7 11 0.01 0.25
7:55 am 07:55 Mostly Cloudy with Light Rain 60 15.4 58 14.5 94 94 E 5 7 30.06 1018 10 16 0.02 0.51
8:15 am 08:15 Mostly Cloudy with Light Rain 60 15.6 59 14.9 96 96 E 3 6 30.06 1018 10 16 0.00 0.00
8:35 am 08:35 Mostly Cloudy 61 16 58 14.6 91 91 Calm 30.06 1018 10 16 0.00 0.00
8:55 am 08:55 Cloudy 61 16.1 59 15.2 94 94 Calm 30.06 1018 10 16 0.00 0.00
9:15 am 09:15 Cloudy 62 16.5 60 15.5 94 94 E 5 7 30.06 1018 10 16 0.00 0.00
9:35 am 09:35 Cloudy 62 16.7 60 15.4 92 92 Calm 30.06 1018 10 16 0.00 0.00
9:55 am 09:55 Cloudy 62 16.9 59 15.1 89 89 ENE 3 6 30.06 1018 10 16 0.00 0.00
10:15 am 10:15 Partly Cloudy 63 17.4 60 15.4 88 88 E 5 7 30.06 1018 10 16 0.00 0.00
10:35 am 10:35 Partly Cloudy 64 18 58 14.7 81 81 E 6 9 30.06 1018 10 16 0.00 0.00
10:55 am 10:55 Cloudy 66 18.9 59 15.1 79 79 ENE 5 7 30.06 1018 10 16 0.00 0.00
11:15 am 11:15 Cloudy 66 19.1 58 14.7 76 76 ENE 7 11 30.06 1018 10 16 0.00 0.00
11:35 am 11:35 Cloudy 68 20.1 58 14.5 70 70 ENE 6 9 30.06 1018 10 16 0.00 0.00
11:55 am 11:55 Partly Cloudy 70 21.2 60 15.7 71 71 ENE 6 9 30.06 1018 10 16 0.00 0.00
12:15 pm 12:15 Sunny 70 21.1 58 14.7 67 67 ENE 5 7 30.06 1018 10 16 0.00 0.00
12:35 pm 12:35 Sunny 71 21.9 58 14.7 64 64 NE 6 9 30.03 1017 10 16 0.00 0.00
12:55 pm 12:55 Sunny 73 22.6 60 15.6 65 65 ENE 7 11 30.03 1017 10 16 0.00 0.00
1:15 pm 13:15 Sunny 74 23.3 60 15.7 62 62 E 6 9 30.03 1017 10 16 0.00 0.00
1:35 pm 13:35 Sunny 74 23.5 60 15.5 61 61 E 7 11 30.03 1017 10 16 0.00 0.00
1:55 pm 13:55 Sunny 75 24 60 15.4 59 59 ESE 5 7 30.03 1017 10 16 0.00 0.00
2:15 pm 14:15 Sunny 76 24.3 59 14.8 55 55 SSE 8 13 30.03 1017 10 16 0.00 0.00
2:35 pm 14:35 Sunny 76 24.5 60 15.6 58 58 E 5 7 30.03 1017 10 16 0.00 0.00
2:55 pm 14:55 Partly Cloudy 76 24.3 58 14.6 55 55 S 3 6 30.03 1017 10 16 0.00 0.00
3:15 pm 15:15 Partly Cloudy 78 25.4 59 14.9 52 52 S 3 6 30.00 1016 10 16 0.00 0.00
3:35 pm 15:35 Partly Cloudy 78 25.6 59 15.1 52 52 S 6 9 30.00 1016 10 16 0.00 0.00
3:55 pm 15:55 Partly Cloudy 76 24.5 58 14.7 54 54 SSE 3 6 30.00 1016 10 16 0.00 0.00
4:15 pm 16:15 Mostly Cloudy 76 24.7 58 14.7 54 54 Calm 30.00 1016 10 16 0.00 0.00
4:35 pm 16:35 Partly Cloudy 77 25.2 61 16.2 58 58 S 5 7 30.00 1016 10 16 0.00 0.00
4:55 pm 16:55 Partly Cloudy 77 25.2 60 15.7 56 56 Calm 29.97 1015 10 16 0.00 0.00
5:15 pm 17:15 Partly Cloudy 78 25.6 60 15.8 55 55 S 5 7 29.97 1015 10 16 0.00 0.00
5:35 pm 17:35 Mostly Cloudy 77 24.8 59 15.1 55 55 ENE 3 6 29.97 1015 10 16 0.00 0.00
5:55 pm 17:55 Mostly Cloudy 77 24.8 62 16.5 60 60 NE 8 13 29.97 1015 10 16 0.00 0.00
6:15 pm 18:15 Mostly Cloudy 76 24.3 61 16.1 60 60 NE 6 9 29.97 1015 10 16 0.00 0.00
6:35 pm 18:35 Cloudy 74 23.6 63 17.1 67 67 Calm 29.97 1015 10 16 0.00 0.00
6:55 pm 18:55 Cloudy 75 24 62 16.8 64 64 ENE 5 7 29.97 1015 10 16 0.00 0.00
7:15 pm 19:15 Partly Cloudy 74 23.4 63 17.1 68 68 ENE 5 7 29.97 1015 10 16 0.00 0.00
7:35 pm 19:35 Partly Cloudy 73 22.5 62 16.8 70 70 ENE 3 6 29.97 1015 10 16 0.00 0.00
7:55 pm 19:55 Partly Cloudy 69 20.6 63 17.2 81 81 NE 5 7 30.00 1016 10 16 0.00 0.00
8:15 pm 20:15 Mostly Cloudy 68 20.1 64 17.8 87 87 Calm 30.00 1016 10 16 0.00 0.00
8:35 pm 20:35 Mostly Cloudy 69 20.3 63 17.3 83 83 SE 3 6 30.00 1016 10 16 0.00 0.00
8:55 pm 20:55 Partly Cloudy 68 19.9 63 17.1 84 84 E 3 6 30.03 1017 10 16 0.00 0.00
9:15 pm 21:15 Partly Cloudy 67 19.4 62 16.8 85 85 Calm 30.03 1017 10 16 0.00 0.00
9:35 pm 21:35 Partly Cloudy 66 18.9 63 17 89 89 Calm 30.03 1017 10 16 0.00 0.00
9:55 pm 21:55 Partly Cloudy 65 18.5 63 17.1 92 92 Calm 30.03 1017 10 16 0.00 0.00
10:15 pm 22:15 Clear 65 18.1 63 17 93 93 E 5 7 30.03 1017 10 16 0.00 0.00
10:35 pm 22:35 Partly Cloudy 64 17.6 62 16.7 95 95 Calm 30.03 1017 10 16 0.00 0.00
10:55 pm 22:55 Mostly Cloudy 64 17.6 63 17 96 96 Calm 30.03 1017 10 16 0.00 0.00
11:15 pm 23:15 Mostly Cloudy with Nearby Thunderstorms 64 18 63 17.2 95 95 WNW 10 17 30.03 1017 10 16 0.00 0.00
11:35 pm 23:35 Mostly Cloudy with Thunderstorms 64 18 60 15.5 85 85 NW 10 17 30.06 1018 10 16 0.00 0.00
11:55 pm 23:55 Cloudy with Thunderstorms 62 16.5 60 15.7 95 95 NNW 10 17 30.03 1017 2 2 0.66 16.76

Powered by AerisWeather